Location: Bovenkerk
(52.2915°N, 4.8336°E)
Time: 01:16:45
(UTC+00:00)

N. Korean satellite - Pass Details

Date: 14 March 2021
Orbit: 453 x 499 km, 97.2° (Epoch: 11 April)

Event Time Altitude Azimuth Distance (km) Brightness Sun altitude
Rises 05:07:29 0° 15° (NNE) 2,559 10.5 -8.4°
Reaches altitude 10° 05:09:33 10° 18° (NNE) 1,682 9.6 -8.1°
Maximum altitude 05:13:10 69° 102° (ESE) 532 7.0 -7.5°
Drops below altitude 10° 05:16:47 10° 186° (S) 1,690 9.2 -7.0°
Sets 05:18:53 0° 189° (S) 2,572 10.1 -6.7°
